Location: Beekmeers
(50.8953°N, 3.6968°E)
Time: 06:33:46
(UTC+00:00)

SENTINEL 1B - Pass Details

Date: 17 October 2025
Orbit: 561 x 585 km, 98.1° (Epoch: 17 November)

Event Time Altitude Azimuth Distance (km) Brightness Sun altitude
Exits shadow 18:00:38 11° 49° (NE) 1,883 7.4 -12.1°
Drops below altitude 10° 18:01:16 10° 40° (NE) 1,922 7.5 -12.2°
Sets 18:05:11 0° 3° (N) 2,825 8.7 -12.9°
